Location: Mentone
(34.5413°N, 85.5351°W)
Time: 18:25:06
(UTC-06:00)

Vanguard 3 - All Passes

Search period start: 20 December 2014 00:00
Search period end: 30 December 2014 00:00
Orbit: 508 x 3276 km, 33.3° (Epoch: 19 December)

Date Brightness Start Highest point End Pass type
(mag) Time Alt. Az. Time Alt. Az. Time Alt. Az.
20 Dec - 05:27:04 10° SW 05:30:52 31° SSE 05:34:09 10° E visible
20 Dec - 07:38:27 10° W 07:42:05 76° S 07:46:28 10° E daylight
20 Dec - 09:49:28 10° W 09:53:38 55° SSW 10:00:07 10° ESE daylight
20 Dec - 12:01:02 10° WSW 12:05:56 25° SSW 12:13:18 10° SSE daylight
21 Dec - 04:15:21 10° SSW 04:19:09 21° SSE 04:22:10 10° ESE visible
21 Dec - 06:26:40 10° WSW 06:30:30 60° S 06:34:12 10° E daylight
21 Dec - 08:38:07 10° W 08:41:51 69° S 08:46:56 10° ESE daylight
21 Dec - 10:49:16 10° W 10:53:37 33° SSW 11:00:19 10° SE daylight
21 Dec - 13:03:29 10° SW 13:06:31 12° SSW 13:10:08 10° S daylight
22 Dec - 03:03:59 10° S 03:07:08 14° SSE 03:09:43 10° SE visible
22 Dec - 05:14:33 10° SW 05:18:55 41° SSE 05:22:24 10° E visible
22 Dec - 07:26:32 10° W 07:30:12 76° S 07:34:18 10° E daylight
22 Dec - 09:37:47 10° W 09:41:39 43° SSW 09:47:18 10° SE daylight
22 Dec - 11:50:02 10° WSW 11:53:52 18° SSW 11:59:02 10° SSE daylight
23 Dec - 04:02:13 10° SW 04:07:10 29° SSE 04:10:44 10° E visible
23 Dec - 06:14:32 10° WSW 06:18:36 69° S 06:22:15 10° E visible
23 Dec - 08:26:18 10° W 08:29:55 59° S 08:34:32 10° ESE daylight
23 Dec - 10:37:51 10° WSW 10:41:36 24° SSW 10:46:53 10° SSE daylight
24 Dec - 02:49:53 10° SSW 02:55:07 21° SSE 02:58:53 10° ESE visible
24 Dec - 05:02:02 10° WSW 05:06:58 52° SSE 05:10:37 10° E visible
24 Dec - 07:14:34 10° W 07:18:18 73° S 07:22:11 10° E daylight
24 Dec - 09:26:07 10° W 09:29:40 33° SSW 09:34:28 10° SE daylight
24 Dec - 11:40:04 10° SW 11:41:49 11° SSW 11:43:47 10° S daylight
25 Dec - 01:38:01 10° S 01:42:43 15° SSE 01:46:22 10° ESE night (unlit)
25 Dec - 03:49:10 10° SW 03:55:10 39° SSE 03:59:09 10° E visible
25 Dec - 06:02:19 10° W 06:06:41 75° S 06:10:19 10° E visible
25 Dec - 08:14:27 10° W 08:17:59 48° SSW 08:22:09 10° ESE daylight
25 Dec - 10:26:43 10° WSW 10:29:35 16° SSW 10:33:11 10° SSE daylight
26 Dec - 00:28:22 10° SSE 00:29:56 10° SSE 00:31:23 10° SE night (unlit)
26 Dec - 02:36:09 10° SW 02:43:04 29° SSE 02:47:35 10° E visible
26 Dec - 04:49:30 10° WSW 04:55:00 63° S 04:58:50 10° E visible
26 Dec - 07:02:31 10° W 07:06:24 67° S 07:10:07 10° ESE daylight
26 Dec - 09:14:32 10° WSW 09:17:40 24° SSW 09:21:34 10° SE daylight
27 Dec - 01:23:19 10° SSW 01:30:36 22° SSE 01:35:35 10° ESE night (unlit)
27 Dec - 03:36:10 10° WSW 03:43:08 49° SSE 03:47:29 10° E visible
27 Dec - 05:50:02 10° W 05:54:46 77° S 05:58:26 10° E visible
27 Dec - 08:02:35 10° W 08:06:01 38° SSW 08:09:46 10° SE daylight
27 Dec - 10:16:50 10° SSW 10:17:33 10° SSW 10:18:17 10° SSW daylight
28 Dec - 00:11:12 10° S 00:17:43 16° SSE 00:22:39 10° ESE night (unlit)
28 Dec - 02:22:34 10° SW 02:30:58 38° SSE 02:36:03 10° E visible
28 Dec - 04:36:53 10° WSW 04:43:00 72° S 04:47:01 10° E visible
28 Dec - 06:50:24 10° W 06:54:27 59° SSW 06:58:04 10° ESE daylight
28 Dec - 09:03:07 10° WSW 09:05:38 17° SSW 09:08:29 10° SSE daylight
28 Dec - 23:01:50 10° SSE 23:04:24 11° SSE 23:06:45 10° SE night (unlit)
29 Dec - 01:09:01 10° SSW 01:18:24 30° SSE 01:24:19 10° E night (unlit)
29 Dec - 03:23:09 10° WSW 03:31:03 60° SSE 03:35:45 10° E visible
29 Dec - 05:37:40 10° W 05:42:48 76° S 05:46:33 10° E visible
29 Dec - 07:50:41 10° W 07:54:00 29° SSW 07:57:21 10° SE daylight
29 Dec - 23:55:56 10° SSW 00:00:00 17° S 00:00:00 17° S night (unlit)
